When you browse on this site, cookies collect data to enhance your experience and personalize the content and advertising you see.
Visit our Privacy Policy to learn more. By continuing to use the site, you agree to this use of cookies and data.
  • In Romania
  • List of Countries
  • For 7 days
  • Water Temperature
  • Satellite Maps
  • Weather Map
  • Weather Widgets
  • user-avatar
    Login

    Hourly Weather Debrecen

    Today, 18 January, Friday

    Time Temperature Precipitation Wind Pressure Humidity
    00:00 +1°C° 0.1 mm 6 mps 747 mmHg 88%
    01:00 +1°C° 0 mm 4 mps 747 mmHg 92%
    02:00 +1°C° 0 mm 5 mps 747 mmHg 92%
    03:00 +1°C° 0 mm 5 mps 747 mmHg 93%
    04:00 0°C° 0 mm 5 mps 747 mmHg 93%
    05:00 0°C° 0 mm 5 mps 747 mmHg 94%
    06:00 0°C° 0 mm 5 mps 747 mmHg 95%
    07:00 0°C° 0 mm 5 mps 747 mmHg 96%
    08:00 +1°C° 0.2 mm 5 mps 747 mmHg 96%
    09:00 +1°C° 0.2 mm 4 mps 747 mmHg 97%
    10:00 +1°C° 0.2 mm 4 mps 748 mmHg 98%
    11:00 +2°C° 0.2 mm 3 mps 748 mmHg 96%
    12:00 +2°C° 0.2 mm 3 mps 748 mmHg 95%
    13:00 +2°C° 0 mm 3 mps 748 mmHg 93%
    14:00 +2°C° 0.1 mm 3 mps 749 mmHg 90%
    15:00 +2°C° 0.1 mm 3 mps 749 mmHg 87%
    16:00 +2°C° 0.1 mm 3 mps 750 mmHg 84%
    17:00 +1°C° 0 mm 3 mps 750 mmHg 85%
    18:00 +1°C° 0 mm 3 mps 751 mmHg 86%
    19:00 0°C° 0 mm 3 mps 751 mmHg 87%
    20:00 0°C° 0 mm 3 mps 752 mmHg 84%
    21:00 0°C° 0 mm 3 mps 752 mmHg 81%
    22:00 0°C° 0 mm 3 mps 753 mmHg 78%
    23:00 -1°C° 0 mm 3 mps 753 mmHg 79%

    Tomorrow, 19 January, Saturday

    Time Temperature Precipitation Wind Pressure Humidity
    00:00 -1°C° 0 mm 3 mps 754 mmHg 81%
    01:00 -2°C° 0 mm 3 mps 754 mmHg 82%
    02:00 -2°C° 0 mm 3 mps 754 mmHg 83%
    03:00 -4°C° 0 mm 3 mps 754 mmHg 84%
    04:00 -4°C° 0 mm 3 mps 754 mmHg 85%
    05:00 -4°C° 0 mm 3 mps 755 mmHg 86%
    06:00 -4°C° 0 mm 3 mps 755 mmHg 86%
    07:00 -5°C° 0 mm 3 mps 755 mmHg 87%
    08:00 -4°C° 0 mm 3 mps 755 mmHg 83%
    09:00 -2°C° 0 mm 3 mps 755 mmHg 80%
    10:00 -2°C° 0 mm 3 mps 755 mmHg 76%
    11:00 -1°C° 0 mm 3 mps 755 mmHg 75%
    12:00 -2°C° 0 mm 4 mps 755 mmHg 74%
    13:00 -1°C° 0 mm 4 mps 754 mmHg 73%
    14:00 -1°C° 0 mm 3 mps 754 mmHg 76%
    15:00 -2°C° 0 mm 3 mps 754 mmHg 79%
    16:00 -2°C° 0 mm 3 mps 754 mmHg 81%
    17:00 -2°C° 0 mm 3 mps 754 mmHg 82%
    18:00 -4°C° 0 mm 3 mps 754 mmHg 83%
    19:00 -4°C° 0 mm 3 mps 753 mmHg 84%
    20:00 -4°C° 0 mm 3 mps 753 mmHg 84%
    21:00 -4°C° 0 mm 3 mps 753 mmHg 84%
    22:00 -2°C° 0 mm 3 mps 753 mmHg 84%
    23:00 -2°C° 0 mm 3 mps 753 mmHg 84%

    Day after tomorrow, 20 January, Sunday

    Time Temperature Precipitation Wind Pressure Humidity
    00:00 -2°C° 0 mm 3 mps 753 mmHg 84%
    01:00 -2°C° 0 mm 3 mps 752 mmHg 83%
    02:00 -2°C° 0.1 mm 3 mps 752 mmHg 84%
    03:00 -2°C° 0.1 mm 3 mps 751 mmHg 85%
    04:00 -2°C° 0.1 mm 3 mps 751 mmHg 86%
    05:00 -2°C° 0.2 mm 3 mps 751 mmHg 87%
    06:00 -3°C° 0.2 mm 4 mps 751 mmHg 89%
    07:00 -3°C° 0.2 mm 4 mps 750 mmHg 91%
    08:00 -2°C° 0.5 mm 3 mps 750 mmHg 92%
    09:00 -1°C° 0.5 mm 3 mps 750 mmHg 93%
    10:00 -1°C° 0.5 mm 3 mps 750 mmHg 95%
    11:00 -1°C° 0.5 mm 3 mps 750 mmHg 95%
    12:00 -1°C° 0.5 mm 2 mps 750 mmHg 96%
    13:00 -1°C° 0.5 mm 2 mps 750 mmHg 96%
    14:00 +1°C° 0.4 mm 1 mps 749 mmHg 97%
    15:00 +1°C° 0.4 mm 1 mps 749 mmHg 97%
    16:00 +1°C° 0.4 mm 1 mps 749 mmHg 97%
    17:00 +1°C° 0.3 mm 1 mps 750 mmHg 97%
    18:00 +1°C° 0.3 mm 1 mps 750 mmHg 97%
    19:00 +1°C° 0.3 mm 1 mps 750 mmHg 97%
    20:00 -1°C° 0.1 mm 2 mps 751 mmHg 96%
    21:00 -1°C° 0.1 mm 2 mps 751 mmHg 96%
    22:00 -1°C° 0.1 mm 2 mps 751 mmHg 95%
    23:00 -2°C° 0.1 mm 2 mps 752 mmHg 94%

    21 January, Monday

    Time Temperature Precipitation Wind Pressure Humidity
    00:00 -2°C° 0.1 mm 2 mps 752 mmHg 93%
    01:00 -2°C° 0.1 mm 2 mps 752 mmHg 91%
    02:00 -3°C° 0 mm 2 mps 752 mmHg 90%
    03:00 -4°C° 0 mm 2 mps 752 mmHg 89%
    04:00 -4°C° 0 mm 2 mps 753 mmHg 89%
    05:00 -5°C° 0 mm 2 mps 753 mmHg 88%
    06:00 -5°C° 0 mm 2 mps 753 mmHg 88%
    07:00 -5°C° 0 mm 2 mps 754 mmHg 88%
    08:00 -5°C° 0 mm 2 mps 754 mmHg 86%
    09:00 -4°C° 0 mm 2 mps 754 mmHg 84%
    10:00 -3°C° 0 mm 2 mps 754 mmHg 83%
    11:00 -3°C° 0 mm 2 mps 754 mmHg 82%
    12:00 -2°C° 0 mm 2 mps 754 mmHg 82%
    13:00 -2°C° 0 mm 2 mps 754 mmHg 82%
    14:00 -2°C° 0 mm 2 mps 754 mmHg 84%
    15:00 0°C° 0 mm 1 mps 754 mmHg 86%
    16:00 0°C° 0 mm 1 mps 754 mmHg 88%
    17:00 0°C° 0 mm 1 mps 754 mmHg 89%
    18:00 0°C° 0 mm 1 mps 755 mmHg 89%
    19:00 -1°C° 0 mm 1 mps 755 mmHg 90%
    20:00 -2°C° 0 mm 0 mps 755 mmHg 91%
    21:00 -2°C° 0 mm 0 mps 755 mmHg 91%
    22:00 -2°C° 0 mm 0 mps 755 mmHg 91%
    23:00 -2°C° 0 mm 0 mps 755 mmHg 92%

    22 January, Tuesday

    Time Temperature Precipitation Wind Pressure Humidity
    00:00 -1°C° 0 mm 1 mps 755 mmHg 92%
    01:00 -2°C° 0 mm 1 mps 755 mmHg 93%
    02:00 -2°C° 0 mm 1 mps 754 mmHg 93%
    03:00 -2°C° 0 mm 1 mps 754 mmHg 94%
    04:00 -2°C° 0 mm 1 mps 754 mmHg 94%
    05:00 -2°C° 0 mm 1 mps 753 mmHg 94%
    06:00 -2°C° 0 mm 1 mps 753 mmHg 94%
    07:00 -2°C° 0 mm 1 mps 753 mmHg 95%
    08:00 -1°C° 0 mm 1 mps 753 mmHg 93%
    09:00 -3°C° 0 mm 2 mps 752 mmHg 91%
    10:00 -2°C° 0 mm 2 mps 752 mmHg 90%
    11:00 -2°C° 0 mm 2 mps 751 mmHg 89%
    12:00 -1°C° 0 mm 2 mps 751 mmHg 88%
    13:00 -1°C° 0 mm 2 mps 750 mmHg 87%
    14:00 -1°C° 0 mm 2 mps 749 mmHg 89%
    15:00 -1°C° 0 mm 2 mps 749 mmHg 90%
    16:00 -2°C° 0 mm 3 mps 748 mmHg 91%
    17:00 -2°C° 0 mm 3 mps 747 mmHg 92%
    18:00 -4°C° 0 mm 3 mps 747 mmHg 93%
    19:00 -4°C° 0 mm 3 mps 746 mmHg 94%
    20:00 -4°C° 0 mm 3 mps 746 mmHg 93%
    21:00 -4°C° 0 mm 3 mps 745 mmHg 92%
    22:00 -4°C° 0 mm 4 mps 745 mmHg 91%
    23:00 -3°C° 0 mm 4 mps 744 mmHg 90%

    23 January, Wednesday

    Time Temperature Precipitation Wind Pressure Humidity
    00:00 -3°C° 0 mm 4 mps 743 mmHg 89%
    01:00 -3°C° 0 mm 4 mps 742 mmHg 88%
    02:00 -3°C° 0.3 mm 4 mps 741 mmHg 89%
    03:00 -3°C° 0.3 mm 4 mps 740 mmHg 91%
    04:00 -1°C° 0.3 mm 3 mps 739 mmHg 92%
    05:00 -1°C° 0.3 mm 3 mps 739 mmHg 93%
    06:00 -1°C° 0.3 mm 3 mps 739 mmHg 93%
    07:00 -1°C° 0.3 mm 3 mps 738 mmHg 94%
    08:00 +1°C° 0.4 mm 2 mps 738 mmHg 95%
    09:00 +1°C° 0.4 mm 2 mps 738 mmHg 95%
    10:00 +1°C° 0.4 mm 2 mps 737 mmHg 96%
    11:00 +1°C° 0.4 mm 2 mps 737 mmHg 97%
    12:00 +1°C° 0.4 mm 2 mps 736 mmHg 98%
    13:00 +2°C° 0.4 mm 2 mps 736 mmHg 99%
    14:00 +1°C° 0.3 mm 2 mps 736 mmHg 98%
    15:00 +2°C° 0.3 mm 1 mps 736 mmHg 97%
    16:00 +2°C° 0.3 mm 1 mps 736 mmHg 96%
    17:00 +2°C° 0.1 mm 1 mps 736 mmHg 96%
    18:00 +2°C° 0.1 mm 1 mps 736 mmHg 95%
    19:00 +2°C° 0.1 mm 1 mps 736 mmHg 94%
    20:00 +2°C° 0 mm 1 mps 736 mmHg 94%
    21:00 +2°C° 0 mm 1 mps 736 mmHg 94%
    22:00 +2°C° 0 mm 1 mps 736 mmHg 94%
    23:00 +1°C° 0 mm 1 mps 736 mmHg 94%
    Show more